GEFSCGP_con_probscp_210.txt.gz
Probability
0 0 0 0 0 0 0 0 0 0 0 0 0 0 2 5 6 6 6 7 8 10 10 7 7 6 5 5 8 10 11 12 12 11 10 7 4 2 1 0 0 0 0 0
0 0 0 0 0 0 0 0 0 0 0 0 0 0 2 5 6 5 6 7 8 10 11 9 8 7 7 7 9 12 14 13 12 11 10 8 5 4 3 1 1 1 1 1
0 0 0 0 0 0 0 0 0 0 0 0 0 1 3 6 7 6 5 5 6 9 11 11 9 8 7 7 10 14 17 16 13 11 10 9 7 7 7 5 4 4 4 4
0 0 0 0 0 0 0 0 0 0 0 0 0 1 3 6 7 6 5 4 5 7 10 11 10 7 6 6 8 13 18 17 13 11 10 9 8 9 10 8 7 7 6 5
0 0 0 0 0 0 0 0 0 0 0 0 0 0 2 4 6 6 6 6 6 6 7 9 9 7 5 5 8 12 15 16 13 11 10 9 8 8 8 9 9 7 5 4
0 0 0 0 0 0 0 0 0 0 0 0 0 0 1 2 4 5 6 9 9 7 6 7 8 8 6 6 8 10 13 15 14 11 10 9 8 8 8 9 8 6 4 4
0 0 0 0 1 0 0 0 0 0 0 0 0 0 1 2 2 2 6 11 13 11 8 7 8 8 7 8 8 9 12 16 16 12 10 9 9 8 9 8 7 5 4 4
0 0 0 0 0 0 0 0 0 0 0 0 0 1 2 2 2 3 7 12 14 12 10 9 8 7 7 8 8 9 13 17 18 16 14 13 11 9 8 7 6 4 4 4
0 0 0 0 0 0 0 0 0 0 0 0 0 1 2 4 6 7 9 12 13 11 11 12 10 8 7 7 8 11 15 18 19 19 18 18 16 11 8 7 6 6 6 7
0 0 0 0 0 0 0 0 0 0 0 0 0 0 2 6 9 10 10 11 12 12 14 16 14 11 9 10 11 14 17 17 18 19 20 22 20 15 12 10 10 11 11 12
0 0 0 0 0 0 0 0 0 0 0 0 0 0 2 5 9 10 11 12 12 13 16 19 18 15 13 14 17 19 18 16 16 17 20 21 21 19 16 15 15 15 15 16
0 0 0 0 0 0 0 0 0 0 0 0 0 0 1 4 7 11 13 12 11 14 18 21 22 21 18 18 21 22 19 15 14 16 19 21 21 21 21 20 19 18 18 17
0 0 0 0 0 0 0 0 0 0 0 0 0 1 2 5 8 11 12 12 14 20 24 25 27 27 24 23 23 24 22 19 17 17 20 21 23 24 23 22 21 20 19 18
0 0 0 0 0 0 0 0 0 0 0 0 0 1 4 7 9 10 11 13 18 27 32 32 31 31 29 27 27 28 28 26 23 21 21 22 24 24 22 19 19 19 18 16
0 0 0 0 0 0 0 0 0 0 0 0 0 2 5 9 11 11 13 17 25 33 39 39 37 37 36 35 35 35 34 32 30 27 24 23 23 23 20 17 17 18 17 15
0 0 0 0 0 0 0 0 0 1 1 1 2 4 8 12 15 16 18 22 30 40 46 46 44 43 44 45 43 41 38 35 34 32 28 25 24 23 21 19 18 19 19 17
1 1 0 0 0 0 0 1 2 3 4 4 6 9 12 16 19 20 21 25 32 41 47 49 49 49 49 48 46 43 39 36 35 33 31 28 26 25 24 22 22 22 23 22
0 0 0 0 0 0 1 2 4 5 9 11 12 14 17 19 19 18 20 25 30 37 44 49 51 51 50 47 45 44 41 39 37 34 31 30 28 27 26 25 24 24 24 24
0 0 0 0 0 0 2 3 4 7 12 17 20 21 20 17 15 16 21 25 30 36 43 50 53 54 53 51 48 46 45 44 42 37 32 29 28 27 26 26 25 24 23 23
0 0 0 0 0 1 4 6 7 9 14 20 25 25 22 18 17 23 30 32 34 39 46 52 56 57 57 55 52 51 50 49 45 40 34 29 26 25 26 26 26 24 23 23
0 0 0 0 0 2 6 9 10 13 19 24 27 28 27 26 28 33 39 41 41 43 47 53 58 59 57 56 55 55 54 51 47 42 36 30 27 25 25 26 26 26 25 24
0 0 0 1 3 5 10 14 16 20 25 28 30 33 34 35 38 41 43 44 44 46 49 53 58 57 53 52 53 55 54 50 47 43 37 31 27 24 23 24 24 24 23 22
1 2 3 5 8 10 14 18 20 23 28 32 34 36 37 38 41 44 44 43 45 49 51 53 56 54 51 48 49 51 50 49 47 43 37 31 27 25 23 21 19 18 18 16
4 5 8 11 12 12 14 18 20 23 27 31 34 35 36 38 41 43 44 45 48 50 51 52 54 54 51 47 45 45 45 46 46 42 35 29 25 24 22 17 13 13 12 10
6 8 12 15 14 12 11 14 18 21 24 27 29 32 34 36 40 42 45 49 51 50 48 50 52 52 48 43 41 40 41 42 42 39 31 24 21 20 18 14 10 8 7 6
6 10 13 14 15 13 11 12 16 19 21 23 27 30 31 33 38 42 47 53 54 49 46 48 49 48 44 39 37 38 39 39 39 35 27 19 18 18 15 11 8 5 3 3

GEFSCGP_con_probscp_216.txt.gz
Probability
0 0 0 0 0 0 0 0 0 0 0 0 1 3 6 6 4 6 9 14 21 27 29 28 24 22 23 26 28 27 24 22 20 18 18 17 16 16 19 20 17 12 10 12
0 0 0 0 0 0 0 0 0 0 0 0 0 2 4 5 4 5 8 14 21 29 32 31 27 24 26 31 31 29 28 27 23 19 17 16 15 16 19 20 19 16 14 14
0 0 0 0 0 0 0 0 0 0 0 0 0 1 3 4 4 5 7 12 19 28 34 32 27 24 28 34 34 31 32 31 26 21 17 15 17 17 18 20 20 20 19 18
0 0 0 0 0 0 0 0 0 0 0 0 0 2 4 5 4 5 7 10 16 25 32 32 27 23 25 29 31 32 34 31 26 20 17 17 18 19 20 20 21 23 23 20
0 0 0 0 0 0 0 0 0 0 0 0 0 1 3 4 4 6 7 10 16 23 30 33 31 25 21 22 25 31 35 32 25 20 17 18 19 21 22 22 23 25 25 22
0 0 0 0 0 0 0 0 0 0 0 0 0 1 2 2 3 4 5 9 15 22 30 34 33 29 23 21 24 32 37 34 27 23 21 21 21 21 22 22 22 23 23 22
0 0 0 0 0 0 0 0 0 0 0 0 0 1 2 1 1 2 3 8 16 24 31 33 32 31 28 26 28 34 38 35 30 28 28 27 24 23 24 24 21 18 19 20
0 0 0 0 0 0 0 0 0 0 0 0 1 2 2 1 1 2 3 8 17 26 31 33 33 33 32 31 32 36 39 37 33 32 34 33 29 25 23 23 21 19 19 21
0 0 0 0 0 0 0 0 0 0 0 0 2 3 3 2 2 3 5 10 18 25 30 32 33 34 33 32 34 36 40 40 36 35 38 38 33 25 20 22 24 24 24 25
0 0 0 0 0 0 0 0 0 0 0 0 1 3 5 4 3 3 6 12 18 24 28 30 31 32 31 32 33 36 40 42 39 38 39 39 36 28 23 24 27 29 30 30
0 0 0 0 0 0 0 0 0 0 0 0 1 2 5 7 5 4 8 14 20 25 29 31 30 28 28 30 33 35 39 40 39 38 39 40 39 35 31 29 31 33 34 34
0 0 0 0 0 0 0 0 0 0 0 0 1 2 4 7 7 7 11 16 22 27 31 33 32 29 27 30 34 36 38 39 38 40 42 44 43 41 38 36 35 34 34 34
0 0 0 0 0 0 0 0 0 0 0 0 2 3 4 6 8 10 15 20 26 29 31 35 38 36 34 36 38 39 40 40 40 44 47 49 47 44 41 39 36 32 30 31
0 0 0 0 0 0 0 0 0 0 0 1 4 5 5 6 9 15 19 23 28 31 34 39 44 46 47 47 48 45 43 43 44 48 51 52 50 46 42 40 35 31 29 29
0 0 0 0 0 0 0 0 0 0 0 2 5 8 9 10 14 20 25 27 30 34 40 47 53 56 57 57 55 51 48 48 50 52 52 52 51 47 41 37 34 31 29 29
0 0 0 0 0 0 0 0 0 0 1 3 7 11 15 19 24 30 34 35 35 39 46 55 63 66 65 62 59 56 54 54 55 55 54 51 49 45 38 33 31 30 30 30
1 1 1 0 0 0 0 0 0 2 4 6 10 15 20 28 37 44 47 46 45 46 52 62 71 74 71 66 63 62 60 59 59 59 56 52 48 44 38 33 30 29 30 30
4 4 3 1 0 0 0 0 1 4 7 10 15 20 25 34 44 51 55 56 55 55 59 68 74 76 74 70 67 65 61 60 60 61 59 53 48 46 41 36 32 31 31 30
7 7 4 0 0 1 0 1 2 5 10 15 21 26 32 38 44 50 56 59 59 60 65 70 73 74 74 73 70 66 62 59 59 61 60 55 49 47 44 39 36 35 34 32
5 5 2 0 1 1 1 1 2 7 15 22 29 35 41 44 44 48 56 59 59 62 65 67 70 72 74 74 71 67 64 61 60 60 59 56 52 50 47 43 40 39 36 33
2 2 1 1 2 3 4 5 9 17 26 32 37 42 46 47 46 49 58 61 61 62 63 64 69 73 76 76 72 68 65 64 62 60 58 56 52 50 48 45 43 40 36 32
1 2 3 4 7 10 13 16 22 31 37 39 40 42 44 45 44 48 56 61 61 61 62 65 69 73 76 76 74 70 68 68 65 61 58 55 50 46 46 45 42 39 34 32
4 6 9 12 15 19 22 24 28 33 38 39 39 39 39 40 41 46 53 58 58 58 61 64 67 70 72 71 70 70 71 70 65 61 58 54 49 46 45 45 41 36 32 31
7 11 16 20 20 19 20 21 22 24 28 33 37 37 36 38 41 47 53 56 54 54 57 60 64 67 67 64 63 66 69 68 63 58 56 52 46 43 44 43 37 31 29 28
9 13 20 24 23 19 18 17 16 15 17 24 31 34 34 37 41 46 51 53 51 49 52 57 62 66 65 62 62 63 65 64 59 55 51 46 39 37 38 36 30 23 19 19
8 13 20 25 27 25 22 19 14 11 12 18 25 29 31 35 39 43 48 51 50 48 50 56 63 65 64 64 63 63 63 62 58 53 47 41 36 34 33 31 24 15 10 9

GEFSCGP_con_probscp_222.txt.gz
Probability
0 0 0 0 0 0 0 0 0 1 1 2 2 2 4 5 8 13 14 13 12 10 8 6 8 12 15 13 9 7 7 5 2 1 2 3 2 1 0 1 4 5 4 3
0 0 0 0 0 0 0 0 0 1 1 1 1 2 4 5 9 12 13 13 12 10 9 9 11 15 16 14 11 8 7 5 2 0 1 2 2 1 1 1 2 4 4 4
0 0 0 0 0 0 0 0 0 1 1 1 1 2 3 5 8 11 12 12 11 11 10 11 14 17 18 17 13 10 7 5 4 3 2 2 2 2 2 1 2 4 5 6
0 0 0 0 0 0 0 0 0 0 0 0 0 1 2 4 6 9 10 10 11 12 10 10 15 19 20 17 14 11 8 7 8 7 5 3 3 3 3 3 4 5 7 7
0 0 0 0 0 0 0 0 0 0 0 0 0 0 1 2 4 6 8 12 13 12 10 9 14 18 19 19 16 14 11 9 9 8 6 5 4 4 3 4 5 7 8 8
0 0 0 0 0 0 0 0 0 0 0 0 0 0 0 1 3 6 11 15 16 13 11 9 11 14 17 21 22 18 14 11 9 8 6 6 5 4 4 5 6 7 7 8
0 0 0 0 0 0 0 0 0 0 0 1 1 0 0 1 4 9 15 18 16 13 11 9 9 10 14 20 23 20 16 13 12 10 8 6 6 6 6 7 7 7 7 8
0 0 0 0 0 0 0 0 0 0 0 1 2 1 1 1 4 8 15 19 17 12 10 9 7 7 10 16 19 19 16 15 16 14 10 6 6 7 8 8 8 8 9 8
0 0 0 0 0 0 0 0 0 0 1 2 3 2 2 3 4 7 13 18 17 12 9 8 6 4 7 12 17 19 18 17 17 15 12 9 8 7 8 7 7 8 8 8
0 0 0 0 0 0 0 0 0 0 1 2 3 3 2 3 5 7 10 15 16 13 9 7 6 4 6 10 16 20 21 20 19 16 15 14 10 7 7 7 5 6 6 7
0 0 0 0 0 0 0 0 0 0 0 1 2 2 3 4 5 7 9 11 14 13 10 9 8 7 7 10 16 21 23 24 23 20 19 17 13 8 7 7 6 4 5 6
0 0 0 0 0 0 0 0 0 0 0 0 1 2 3 4 5 7 9 11 14 14 13 12 12 9 9 13 18 23 27 28 26 24 23 21 17 12 10 10 8 6 6 6
0 0 0 0 0 0 0 0 0 0 0 1 2 3 5 5 4 6 8 11 15 18 19 18 16 12 12 16 22 27 32 32 30 28 26 23 20 16 14 12 11 9 9 9
0 0 0 0 0 0 0 0 0 0 0 1 2 4 6 6 5 6 9 13 18 20 22 22 19 16 15 19 25 31 35 36 34 33 31 26 23 20 16 13 12 11 11 11
0 0 0 0 0 0 0 0 0 0 1 3 5 7 9 9 10 12 15 20 24 24 24 24 21 18 18 20 25 31 35 36 35 35 34 31 26 23 20 16 13 11 10 10
0 0 0 0 0 1 2 2 1 2 4 6 9 13 13 15 19 22 24 27 31 32 32 30 26 22 21 22 25 30 33 34 33 33 35 34 30 28 25 21 17 15 13 12
0 0 0 0 1 2 4 4 4 6 9 11 15 18 20 22 25 26 26 28 33 37 38 37 33 31 30 28 28 31 33 34 33 33 35 36 34 31 29 25 22 21 20 19
0 0 0 1 2 2 3 3 6 10 15 19 22 24 26 27 26 25 24 26 31 34 36 38 38 37 37 36 35 35 38 38 37 36 36 38 37 33 30 27 24 25 24 23
0 0 1 1 2 2 1 2 7 13 18 22 25 27 28 26 23 23 24 27 29 31 33 37 40 41 40 40 41 41 41 42 42 40 37 37 37 35 31 28 25 24 24 23
1 1 2 2 2 2 3 4 8 13 18 19 22 25 25 24 22 23 26 29 30 31 35 40 43 44 42 43 46 46 45 46 45 42 38 36 34 33 30 28 27 25 23 21
2 1 2 3 2 3 4 6 8 11 15 16 18 20 23 25 26 27 29 31 31 33 37 43 45 44 43 45 47 47 48 49 46 42 40 38 34 31 28 27 27 25 23 21
3 3 3 2 1 2 4 6 7 10 14 16 18 21 23 27 31 33 32 33 33 36 41 44 44 43 42 43 43 44 45 44 42 41 40 39 36 32 28 27 27 26 24 21
5 5 4 3 2 2 3 5 7 11 14 17 19 22 23 26 32 34 33 33 34 38 42 43 42 41 41 40 40 40 39 37 39 42 42 39 35 31 28 26 25 24 23 21
4 5 6 6 4 3 3 4 6 9 13 16 19 21 22 24 27 30 30 31 33 35 38 39 38 39 38 37 37 37 36 35 37 41 41 37 32 28 25 23 21 20 19 17
2 3 6 6 4 3 4 4 5 8 11 13 15 18 19 20 22 24 26 28 30 30 31 33 34 34 35 35 33 32 32 32 33 36 35 32 28 26 24 20 15 13 12 12
1 3 5 4 2 2 2 4 7 10 11 10 12 14 15 17 18 21 23 25 28 28 27 29 31 32 34 34 31 29 28 28 29 32 31 28 25 24 23 18 11 7 7 7

GEFSCGP_con_probscp_228.txt.gz
Probability
0 0 0 0 0 0 0 0 0 0 0 1 2 3 4 5 6 9 10 8 4 1 1 2 3 5 6 7 5 3 1 0 0 0 0 0 0 0 0 0 0 0 0 0
0 0 0 0 0 0 0 0 0 0 0 1 2 3 3 3 4 7 9 7 4 1 0 2 3 6 7 7 6 3 1 0 0 0 0 0 0 0 0 0 0 0 0 0
0 0 0 0 0 0 0 0 0 0 0 1 2 2 1 1 2 4 6 6 3 1 1 2 4 6 8 8 6 3 1 0 0 0 0 0 0 0 0 0 0 0 0 0
0 0 0 0 0 0 0 0 0 0 0 0 1 1 0 0 1 3 5 4 3 2 1 2 4 6 8 8 5 2 0 0 0 0 0 0 0 0 0 0 0 0 0 0
0 0 0 0 0 0 0 0 0 0 0 0 0 0 0 0 0 2 3 4 3 2 1 1 2 4 6 5 3 1 0 0 0 0 0 0 0 0 0 0 0 0 0 0
0 0 0 0 0 0 0 0 0 0 0 0 0 0 0 0 0 0 2 3 2 1 0 0 1 2 3 3 3 1 0 0 0 0 0 0 0 0 0 0 0 0 0 0
0 0 0 0 0 0 0 0 0 0 0 0 0 0 0 0 0 0 1 3 2 0 1 1 0 1 2 3 3 2 1 1 1 1 0 0 0 0 0 0 0 0 1 1
0 0 0 0 0 0 0 0 0 0 0 0 0 0 0 0 0 0 2 3 1 1 2 2 1 2 3 4 5 4 4 4 4 3 1 1 1 0 0 0 0 0 0 0
0 0 0 0 0 0 0 0 0 0 0 0 0 0 0 0 0 0 2 2 1 1 2 2 1 1 2 3 5 6 6 6 6 5 4 3 3 1 0 0 0 0 0 0
0 0 0 0 0 0 0 0 0 0 0 0 0 0 0 0 0 0 1 1 0 0 1 1 0 0 1 3 5 6 7 7 7 7 7 7 6 4 2 1 1 1 0 0
0 0 0 0 0 0 0 0 0 0 0 0 0 0 0 0 0 0 0 0 0 0 1 1 1 1 2 4 6 7 7 8 9 10 10 11 9 7 6 5 4 3 1 1
0 0 0 0 0 0 0 0 0 0 0 0 0 0 0 1 1 1 0 0 1 1 2 4 3 2 3 5 8 9 10 10 11 12 14 15 14 12 9 7 5 4 3 3
0 0 0 0 0 0 0 0 0 0 0 0 0 0 1 2 2 1 0 2 3 3 3 4 3 3 5 6 7 10 12 13 15 16 17 19 19 16 11 8 6 5 5 5
0 0 0 0 0 1 1 0 0 0 0 0 0 0 1 2 2 2 2 4 6 6 4 3 3 5 6 6 7 9 13 16 19 19 18 19 19 17 14 11 8 6 6 6
0 0 0 1 1 2 2 1 1 1 0 0 1 1 1 2 3 4 5 6 8 8 5 4 6 8 8 8 8 9 12 17 19 19 18 18 17 16 16 15 11 9 8 9
0 0 1 2 3 3 3 2 2 2 2 1 1 1 3 5 6 7 7 7 7 7 7 8 9 10 11 11 10 9 10 15 17 18 19 20 19 17 17 16 13 9 9 11
0 0 1 2 3 3 2 1 3 5 6 4 3 5 8 11 11 10 10 9 9 10 12 12 12 12 11 12 11 10 11 15 18 18 21 24 24 22 20 18 13 10 10 12
0 0 1 1 2 2 2 3 5 9 11 10 8 12 16 18 17 14 13 13 14 16 17 17 16 14 13 12 13 13 15 18 21 22 23 27 29 27 24 21 16 13 12 12
0 0 0 1 2 2 3 6 8 12 15 14 14 18 23 24 22 18 16 15 17 19 20 20 20 20 19 18 19 20 21 22 24 26 28 30 32 31 28 24 20 16 13 12
0 0 1 2 2 2 4 8 9 10 12 13 16 21 24 24 21 18 17 17 17 17 20 22 23 24 25 23 23 25 25 25 25 27 29 31 33 32 28 25 22 17 14 12
0 0 1 2 3 2 5 10 10 7 7 10 15 19 19 18 16 14 16 18 17 17 19 23 26 27 26 24 24 24 25 24 23 23 25 28 29 27 24 23 22 19 15 13
0 0 1 2 2 2 5 9 9 6 6 10 14 15 14 13 12 13 16 18 18 18 21 24 27 28 25 23 23 23 23 22 20 20 20 22 22 20 20 21 21 19 16 14
0 0 0 1 2 2 4 6 6 6 8 10 12 13 12 11 11 13 16 18 19 19 20 22 25 26 24 23 22 20 19 18 17 18 18 18 17 16 17 18 19 18 17 17
0 0 1 2 2 1 2 3 3 4 5 7 9 10 10 10 11 12 14 16 16 16 16 18 20 22 21 21 19 17 14 13 14 15 17 17 15 14 14 15 17 16 16 17
0 0 1 2 1 0 1 1 1 1 2 3 5 6 7 8 9 9 10 11 11 11 11 12 13 15 18 18 17 15 13 12 12 13 15 15 14 12 12 13 15 14 12 12
0 0 1 2 1 0 0 0 0 0 0 1 2 4 6 6 7 7 7 7 8 8 7 7 9 11 15 17 16 15 13 12 11 12 14 14 13 12 12 13 14 12 9 8

GEFSCGP_con_probscp_234.txt.gz
Probability
0 0 0 0 0 0 0 0 0 0 0 1 2 3 3 3 3 4 6 6 4 3 1 0 0 1 2 4 6 6 6 4 2 1 2 2 2 1 2 2 1 0 0 0
0 0 0 0 0 0 0 0 0 0 0 1 2 3 3 3 3 3 4 5 4 3 2 1 0 1 3 5 6 6 6 4 3 2 3 3 2 1 1 1 0 0 0 0
0 0 0 0 0 0 0 0 0 0 0 1 2 3 3 3 3 2 3 4 4 3 2 1 0 2 4 5 5 6 7 5 4 3 3 2 2 1 0 0 0 0 0 0
0 0 0 0 0 0 0 0 0 0 0 0 1 1 2 3 2 2 4 6 5 4 3 1 0 1 3 4 3 5 8 8 5 3 2 1 1 1 0 0 0 0 0 0
0 0 0 0 0 0 0 0 0 0 0 0 0 0 1 2 2 2 4 7 7 6 5 2 0 0 1 1 1 4 8 9 7 4 2 1 1 0 0 0 0 0 0 0
1 0 0 0 0 0 0 0 0 0 0 0 0 0 1 2 3 3 4 6 7 7 7 4 1 1 1 1 1 3 6 8 9 7 5 3 2 0 0 0 0 0 0 0
2 1 0 0 0 0 0 0 0 0 0 0 0 1 2 3 3 3 3 4 5 7 7 5 3 2 2 3 2 3 5 8 10 10 8 6 4 1 0 0 0 0 0 0
2 1 0 0 0 0 0 0 0 0 0 0 0 1 2 2 3 3 3 4 5 7 8 5 3 2 3 4 3 2 3 6 8 9 10 9 6 2 1 1 1 0 0 0
1 1 0 0 0 0 0 0 0 0 0 0 0 2 2 2 3 4 4 6 8 10 9 5 2 1 2 2 2 2 3 4 5 7 9 9 6 4 4 4 3 2 2 2
0 0 0 0 0 0 0 0 0 0 0 0 0 1 3 3 3 5 7 8 10 13 11 5 2 1 1 1 2 3 4 4 4 5 7 7 6 6 7 8 9 8 7 7
0 0 0 0 0 0 0 0 0 0 0 0 0 1 2 3 3 7 11 11 11 13 11 7 4 3 3 3 4 5 7 8 8 8 9 9 9 11 13 14 14 13 14 14
0 0 0 0 0 0 0 0 0 0 0 0 0 1 1 1 2 6 12 14 14 14 12 10 10 9 7 7 8 8 11 13 14 14 13 13 14 16 17 17 16 16 17 17
0 0 0 0 0 0 0 0 0 0 0 0 0 1 1 1 3 6 12 16 16 14 14 16 17 16 14 12 12 13 15 18 20 20 18 17 17 18 19 19 18 18 19 19
0 0 0 0 0 0 0 0 0 0 0 0 0 1 2 4 7 9 12 15 15 15 16 19 21 21 20 19 19 19 20 22 25 25 23 22 22 22 22 21 20 20 20 21
0 0 0 0 0 0 0 0 0 0 0 0 1 3 6 9 10 11 13 14 16 18 19 20 23 24 22 21 23 25 26 28 31 31 29 28 28 28 26 23 21 21 21 20
0 0 0 0 0 0 0 1 1 0 1 1 2 7 12 14 14 16 18 19 22 24 25 24 27 27 23 21 23 26 30 32 34 33 31 30 30 30 29 26 25 25 23 21
0 0 0 0 0 0 1 2 2 2 3 5 6 10 14 17 19 21 24 27 29 30 30 32 34 30 26 26 27 28 30 33 33 32 30 29 29 31 32 31 30 31 29 27
1 0 0 0 0 0 2 3 3 5 8 10 13 15 15 16 21 24 26 30 33 32 32 36 37 33 30 32 33 32 33 32 32 31 30 29 29 32 34 34 33 34 34 33
1 0 0 0 0 1 3 5 6 10 14 16 17 18 17 17 22 24 24 27 32 33 31 31 32 29 28 32 35 36 35 32 31 32 33 32 32 34 37 37 37 37 35 34
1 0 0 0 0 2 6 8 8 11 15 19 20 21 21 22 26 27 24 23 27 30 29 29 29 27 27 31 35 35 33 29 29 32 34 34 34 34 36 38 40 40 37 34
1 0 0 0 0 3 9 11 10 13 17 22 25 26 27 30 34 32 25 21 22 26 29 31 32 32 32 35 36 34 30 28 29 31 33 33 32 31 31 35 39 40 37 35
1 1 1 1 2 6 12 15 16 19 21 24 28 30 32 34 33 29 23 19 20 24 29 33 36 37 37 38 37 35 32 29 28 29 29 28 28 27 27 31 33 33 33 33
2 4 5 6 8 11 15 17 19 22 23 24 27 29 30 30 27 22 19 18 19 24 29 33 35 37 38 37 36 34 32 30 28 26 26 25 25 24 24 24 24 24 26 28
5 7 10 11 13 15 16 17 17 20 22 23 24 25 25 24 20 17 16 18 20 24 28 30 33 34 35 34 32 29 27 27 26 24 24 25 24 21 19 17 17 18 21 23
7 9 12 14 14 15 16 16 16 16 18 20 21 20 20 17 14 11 12 15 18 21 24 27 30 31 30 29 27 24 23 23 22 22 23 23 21 19 16 14 13 14 16 17
9 10 12 13 14 15 16 16 15 13 14 17 18 17 15 12 10 8 9 12 15 18 20 24 27 28 26 24 22 22 22 21 21 22 22 20 19 19 16 12 11 11 12 12

GEFSCGP_con_probscp_240.txt.gz
Probability
0 0 0 0 0 0 0 0 0 0 0 1 3 4 3 2 2 3 5 6 8 8 7 8 7 8 14 18 17 16 15 10 4 1 4 9 8 4 3 2 2 1 1 0
0 0 0 0 0 0 0 0 0 0 0 1 2 3 3 3 3 2 3 5 7 8 9 11 9 9 14 19 20 18 16 12 6 2 4 8 7 4 3 5 5 4 3 2
0 0 0 0 0 0 0 0 0 0 0 1 2 2 3 4 3 2 3 4 6 8 12 13 12 10 12 16 18 17 16 14 9 4 3 5 6 4 4 7 8 8 7 7
0 0 0 0 0 0 0 0 0 0 0 0 1 2 3 4 3 2 3 4 5 7 10 12 11 10 10 11 13 15 16 15 11 6 2 3 5 4 4 7 9 10 10 9
0 0 0 0 0 0 0 0 0 0 0 0 0 2 4 4 3 4 4 4 5 6 8 10 11 10 9 8 10 15 16 15 13 9 4 3 3 2 3 7 10 11 10 8
0 0 0 0 0 0 0 0 0 0 0 0 0 2 4 3 2 5 6 4 4 6 9 12 13 13 9 8 11 16 17 15 14 12 9 6 3 2 4 8 10 9 9 8
0 0 0 0 1 0 0 0 0 0 0 0 1 3 4 2 1 3 5 5 5 6 9 13 19 20 15 13 16 20 20 18 16 14 12 11 7 4 4 6 7 7 8 9
0 0 0 0 0 0 0 0 0 0 0 0 2 5 4 3 2 4 7 8 9 10 12 16 22 25 22 19 22 26 26 23 19 16 14 13 10 5 3 4 4 5 8 10
1 1 1 0 0 0 0 0 0 0 0 0 2 5 6 5 5 7 11 14 16 17 19 20 22 24 23 23 26 30 32 29 24 19 16 14 11 7 6 7 8 9 11 12
1 1 1 0 0 0 0 0 0 0 0 0 2 5 6 7 7 9 13 18 21 23 24 24 23 24 25 27 27 30 33 33 29 24 19 16 15 13 13 14 16 17 18 19
0 0 0 0 0 0 0 0 0 0 0 0 2 4 6 8 9 9 13 19 23 26 28 28 26 26 28 28 28 29 32 34 32 27 22 20 21 21 20 20 22 23 24 25
0 0 0 0 0 0 0 0 0 0 1 0 2 5 8 9 10 11 14 21 26 30 30 30 29 30 30 30 30 31 32 32 31 30 27 26 28 28 27 26 27 26 26 28
1 1 0 0 0 0 0 0 0 0 0 0 3 8 10 11 12 13 17 24 30 31 30 31 33 35 35 35 35 35 32 31 32 32 31 33 35 36 34 33 32 30 29 31
2 1 0 0 0 0 0 0 0 0 0 1 5 11 13 13 14 18 23 29 32 33 34 37 39 40 42 44 44 41 35 31 33 34 35 37 40 41 39 36 34 33 33 33
1 1 0 0 0 0 0 0 0 0 0 2 7 14 17 17 19 23 26 31 33 35 39 42 44 47 49 51 51 47 42 39 38 39 40 40 42 42 39 35 33 32 32 32
0 0 0 0 0 0 0 0 0 0 0 3 10 19 25 25 26 28 29 32 35 38 42 46 51 55 57 56 53 50 47 47 48 47 46 45 44 42 38 34 31 31 32 32
0 1 1 0 0 1 1 0 0 1 2 6 13 23 30 32 32 34 36 38 41 43 46 51 56 59 60 56 51 48 47 49 52 52 49 47 46 44 42 38 36 35 36 37
2 3 2 0 1 2 3 2 2 2 4 8 14 24 33 36 37 39 43 46 49 50 51 53 54 54 56 55 52 49 47 47 50 49 47 47 46 46 46 43 41 40 41 42
3 4 2 1 2 4 4 4 4 5 7 13 22 32 38 39 39 41 45 47 49 49 50 50 48 47 51 54 55 54 51 49 48 46 46 47 47 48 47 45 43 43 45 46
3 4 3 1 2 4 5 5 6 8 15 26 35 42 46 43 43 45 45 43 42 44 46 44 43 44 47 51 54 55 55 51 48 47 47 48 49 50 49 47 46 47 48 49
2 3 3 2 3 6 8 9 13 21 32 40 45 49 52 51 52 53 48 42 40 41 42 41 42 44 45 47 49 52 54 52 48 47 49 50 50 49 48 50 50 49 49 49
2 5 7 7 10 15 19 22 30 40 47 47 47 52 55 54 54 53 50 45 41 40 40 41 43 47 48 49 51 54 55 53 50 49 51 51 51 47 46 48 47 44 44 43
5 8 12 16 22 28 32 37 43 48 48 45 44 48 50 46 44 43 42 40 36 36 38 41 43 47 48 50 54 57 56 53 51 51 50 50 49 45 43 42 38 35 35 35
6 9 14 22 29 32 34 36 39 42 43 41 39 39 39 37 35 35 34 33 31 33 36 38 40 42 44 47 51 53 52 50 48 47 46 44 42 39 36 35 32 30 30 30
6 7 13 22 27 28 28 29 31 35 39 38 36 34 32 31 30 31 30 29 29 31 32 33 34 36 39 42 44 43 44 46 45 43 40 37 34 31 29 28 27 26 26 26
7 6 11 21 25 25 27 26 27 32 36 36 34 32 29 28 27 26 27 28 29 30 30 30 30 32 35 38 39 38 40 44 44 40 36 33 30 28 25 25 24 21 20 20

GEFSCGP_con_probscp_246.txt.gz
Probability
0 0 0 0 0 0 0 0 0 1 2 2 1 0 1 3 8 9 7 4 5 8 11 14 16 15 11 8 8 8 7 5 2 0 0 0 0 0 0 0 0 0 0 0
0 0 0 0 0 0 0 0 0 1 1 1 1 1 0 2 4 6 4 3 4 7 11 15 17 16 13 10 10 9 8 6 3 1 0 0 0 0 0 0 0 0 0 0
0 0 0 0 0 0 0 0 0 0 0 1 2 2 1 1 3 3 3 3 5 7 10 14 17 17 15 12 10 10 9 7 4 2 1 0 0 0 0 0 0 0 0 0
0 0 0 0 0 0 0 0 0 0 0 1 2 2 1 2 3 3 4 4 5 7 9 12 15 15 13 10 8 8 8 7 6 5 3 0 0 0 0 0 0 0 0 0
0 0 0 0 0 1 1 0 0 0 0 0 1 1 1 1 2 2 3 3 4 5 7 9 12 12 10 8 7 6 6 6 7 7 4 1 0 0 0 0 0 0 0 0
0 0 0 0 0 1 2 1 0 0 0 0 0 0 0 0 0 1 2 1 2 3 4 6 9 10 9 9 9 8 7 6 7 6 4 1 0 0 0 0 0 0 0 0
0 0 0 0 0 1 2 1 0 0 0 0 0 0 0 0 0 0 0 1 3 3 3 4 6 9 12 14 13 10 7 7 6 6 4 1 0 0 0 0 0 0 0 0
0 0 0 0 0 1 1 0 0 0 0 0 0 0 0 1 1 1 1 2 4 6 7 6 6 9 15 18 16 12 10 8 7 6 5 3 1 0 0 0 0 0 0 0
0 0 0 0 0 0 0 0 0 0 0 0 0 0 1 2 3 4 4 4 6 10 12 10 8 9 14 18 18 16 13 11 9 7 6 5 2 1 1 1 1 0 0 0
0 0 0 0 0 0 0 0 0 0 0 0 0 0 1 2 5 6 6 6 8 12 14 12 9 10 13 17 19 18 16 14 12 10 10 9 6 4 3 3 2 1 1 1
0 0 0 0 0 0 0 0 0 0 0 0 0 0 0 2 4 6 7 8 9 13 15 12 10 12 15 19 21 21 18 16 15 14 14 14 12 10 7 5 3 3 3 4
0 0 0 0 0 0 0 0 0 0 0 0 0 1 1 3 5 7 9 9 11 15 17 14 12 13 17 21 24 23 21 19 18 17 17 17 16 14 11 7 6 5 6 6
0 0 0 0 0 0 0 0 0 0 0 0 1 2 3 5 7 9 10 10 13 18 19 17 15 16 19 23 25 25 24 22 20 18 19 19 18 16 13 11 10 10 10 10
0 0 0 0 0 0 0 0 0 0 0 1 2 3 4 6 8 10 10 11 15 20 22 21 20 20 21 24 27 29 29 27 24 22 21 21 19 18 16 15 16 16 17 17
0 0 0 0 1 1 0 0 0 0 1 2 3 3 5 8 11 11 12 15 20 25 27 26 25 24 24 26 29 32 33 32 29 27 25 23 23 22 22 22 22 22 22 23
0 0 0 1 2 2 1 1 1 2 3 4 4 4 8 13 17 17 19 24 28 30 30 29 28 26 26 27 29 30 31 31 31 28 26 25 25 25 26 27 27 25 24 23
0 0 1 2 3 3 3 3 4 7 8 8 8 10 15 20 21 21 25 31 34 32 29 28 27 27 26 27 28 28 27 27 28 27 25 25 25 25 26 27 26 24 22 22
0 1 1 3 3 3 4 6 9 13 15 14 15 19 24 26 24 24 26 32 35 33 30 29 28 26 27 28 29 28 26 25 28 28 27 27 27 25 24 24 22 20 20 21
1 1 2 3 3 3 4 7 12 19 21 20 19 23 27 27 26 25 26 30 33 32 31 31 30 28 29 31 32 31 29 27 29 31 30 29 28 26 24 22 20 19 19 20
1 2 3 3 3 4 5 7 11 18 22 19 18 22 26 28 27 27 27 28 29 29 28 28 29 31 32 32 31 32 31 30 31 31 30 29 27 26 25 22 19 18 17 18
2 3 3 3 4 5 7 7 7 12 15 15 16 21 25 27 27 27 26 25 26 28 28 27 29 32 34 32 29 28 28 29 29 30 30 29 27 25 22 20 19 18 17 17
2 3 3 3 4 6 8 7 5 6 9 12 15 19 23 25 25 24 22 21 23 26 28 28 28 30 32 31 30 29 28 27 27 28 29 28 27 24 19 17 17 17 17 18
1 2 4 6 7 9 11 11 10 10 11 12 14 18 21 23 21 18 17 17 18 21 24 25 24 24 25 28 31 31 30 28 28 28 28 27 26 24 20 17 15 15 16 16
1 2 6 10 13 15 16 16 17 17 16 14 15 17 20 21 18 14 13 14 15 17 21 21 20 20 20 23 26 28 28 28 28 28 27 26 26 25 22 18 15 14 14 14
3 4 7 11 15 18 17 16 17 17 16 15 16 16 17 17 15 12 11 12 14 16 18 19 18 18 18 18 19 20 21 23 25 25 24 24 24 23 20 17 15 13 12 11
3 4 7 11 14 16 15 13 13 14 13 14 14 15 14 13 11 10 9 11 13 15 16 17 17 17 17 15 13 14 16 18 21 21 20 20 20 19 18 16 14 11 10 9

GEFSCGP_con_probscp_252.txt.gz
Probability
0 0 0 0 0 0 0 0 0 0 0 0 1 1 0 0 0 1 1 1 0 0 1 1 1 2 1 0 0 0 0 0 0 0 0 0 0 0 0 0 0 0 0 0
0 0 0 0 0 0 0 0 0 0 0 0 1 2 1 0 0 0 0 0 1 1 2 2 2 1 1 0 0 0 0 0 0 0 0 0 0 0 0 0 0 0 0 0
0 0 0 0 0 0 0 0 0 0 0 0 1 2 2 1 0 0 0 0 1 2 3 3 2 1 0 0 0 0 0 0 0 0 0 0 0 0 0 0 0 0 0 0
0 0 0 0 0 0 0 0 0 0 0 0 0 2 2 1 0 0 0 0 1 2 3 3 2 1 0 0 0 0 0 0 0 1 2 1 0 0 0 0 0 0 0 0
0 0 0 0 0 0 0 0 0 0 0 0 1 1 2 1 0 0 0 0 0 1 2 3 2 1 0 0 0 0 0 0 1 2 3 2 1 0 0 0 0 0 0 0
0 0 0 0 0 0 0 0 0 0 1 1 1 1 1 0 0 0 0 0 0 0 1 2 2 1 0 0 1 1 0 1 1 3 3 3 1 0 0 0 0 0 0 0
0 0 0 0 0 0 0 0 0 0 1 2 2 1 1 0 0 0 0 0 0 0 0 1 1 2 2 3 4 4 2 2 3 3 3 3 2 1 1 0 0 0 0 0
0 0 0 1 0 0 0 0 0 0 1 2 2 2 1 0 0 0 0 0 0 0 0 0 1 2 4 7 8 7 5 4 3 3 3 3 3 3 2 1 0 0 0 0
0 0 0 0 0 0 0 0 0 0 0 1 1 1 0 0 0 1 1 1 0 0 0 0 1 3 6 9 8 8 7 6 5 4 4 4 3 3 3 1 0 0 0 0
0 0 0 0 0 0 0 0 0 0 0 0 0 0 0 0 1 2 2 2 1 1 1 1 1 3 6 9 9 8 8 8 7 6 5 5 4 4 3 2 1 1 1 1
0 0 0 0 0 0 0 0 0 0 0 0 0 0 0 0 1 3 3 4 3 3 3 3 3 4 6 10 11 10 9 8 8 7 7 6 5 4 3 2 2 2 2 3
0 0 0 0 0 0 0 0 0 0 0 0 0 0 1 1 2 3 4 5 5 4 4 5 5 5 7 11 13 12 11 9 8 8 8 7 6 4 3 2 2 2 3 4
0 0 0 0 0 0 0 0 0 0 0 0 0 1 2 3 3 4 5 6 6 6 7 6 5 6 8 12 15 14 13 11 10 9 9 9 7 6 5 4 4 4 4 6
0 0 0 0 0 0 0 0 0 0 0 0 0 1 2 3 3 4 5 6 7 8 9 7 6 5 7 11 14 15 15 14 13 12 11 10 10 9 8 7 6 5 6 8
0 0 0 0 0 0 1 1 1 0 0 0 1 2 3 4 4 4 5 7 8 9 9 8 6 5 6 9 13 14 15 18 19 16 12 10 11 12 11 9 7 7 8 9
0 0 0 0 1 1 3 4 3 1 0 1 3 4 6 8 7 6 5 6 8 10 10 10 9 7 8 10 13 14 17 21 22 19 14 11 12 13 13 12 10 9 10 11
0 0 0 1 2 2 3 6 6 4 2 3 4 6 8 10 8 7 6 6 9 13 15 16 15 13 11 12 14 15 18 21 21 19 17 16 16 16 17 16 14 13 13 13
0 1 1 2 3 2 3 5 7 7 6 5 5 6 8 10 9 9 9 9 11 15 18 18 18 16 13 13 15 17 20 22 20 18 19 20 21 21 22 20 17 15 14 13
1 2 2 2 2 2 3 3 5 8 9 8 7 8 8 10 12 12 10 10 13 16 16 15 15 14 13 14 17 19 21 22 21 19 19 20 22 22 23 20 16 14 13 12
2 2 2 1 2 2 2 2 4 7 8 8 9 10 11 12 12 12 10 12 16 17 14 11 11 13 14 14 17 19 20 21 22 21 20 20 20 20 20 18 14 12 12 12
2 3 2 1 1 1 1 2 2 3 4 6 8 10 12 11 9 9 10 13 16 16 12 8 8 12 13 13 14 17 18 19 22 22 20 20 19 19 19 17 14 13 12 12
1 2 2 1 0 0 1 3 2 1 3 5 8 10 12 11 9 10 12 14 16 15 12 8 6 7 8 9 12 14 16 18 20 20 19 18 18 18 19 19 17 15 13 12
0 1 1 2 2 1 2 3 3 1 3 6 8 11 12 11 10 10 12 15 16 15 12 9 7 6 5 7 10 14 17 18 19 18 16 16 16 17 18 18 17 15 12 12
0 0 2 5 5 4 4 5 5 4 5 8 11 12 12 11 10 9 9 11 13 12 11 10 9 8 7 8 10 14 17 19 20 18 16 16 15 15 16 16 14 12 11 11
0 1 3 6 5 4 5 7 7 5 6 9 11 12 10 8 7 7 6 6 7 7 8 8 8 7 7 8 10 13 16 18 19 18 16 16 15 15 15 12 10 9 9 10
0 1 4 4 3 3 5 8 8 6 6 9 11 11 9 7 5 4 4 4 4 5 4 5 5 4 5 7 10 12 15 16 16 16 15 15 16 16 14 10 7 6 6 7